Location: Unspecified
(0.0000°N, 0.0000°E)
Time: 02:37:49
(UTC+02:00)

CZ-4B DEB - Visible Passes

Search period start: 23 October 2014 00:00
Search period end: 01 November 2014 23:00
Orbit: 516 x 531 km, 97.5° (Epoch: 21 October)

Date Brightness Start Highest point End Pass type
(mag) Time Alt. Az. Time Alt. Az. Time Alt. Az.
23 Oct 6.2 21:29:25 10° SW 21:32:00 17° WSW 21:34:34 10° WNW visible
24 Oct 5.4 21:16:13 10° SSW 21:19:29 27° WSW 21:22:43 10° NW visible
25 Oct 4.5 21:03:16 10° S 21:06:54 42° WSW 21:10:31 10° NNW visible
26 Oct 3.5 19:50:27 10° S 19:54:15 71° WSW 19:58:03 10° NNW visible
27 Oct 3.1 19:37:45 10° SSE 19:41:34 69° E 19:45:20 10° N visible
28 Oct 3.6 19:25:11 10° SSE 19:28:48 41° E 19:32:23 10° N visible
29 Oct 4.2 19:12:47 10° SE 19:15:59 26° E 19:19:10 10° NNE visible
30 Oct 6.4 20:34:53 10° SW 20:37:01 15° WSW 20:39:09 10° WNW visible
31 Oct 5.7 20:21:04 10° SSW 20:24:06 23° WSW 20:27:07 10° NW visible
01 Nov 4.8 20:07:36 10° S 20:11:07 36° WSW 20:14:37 10° NW visible
